Regional Weather Roundup
Issued by NWS Jackson, KY

Home | Current Version | Previous Version | Graphics & Text | Print | Product List | Glossary On
Versions: 1 2 3 4 5 6 7 8 9 10 11 12 13 14 15 16 17 18 19 20 21 22 23 24 25 26 27 28 29 30 31 32 33 34 35 36 37 38 39 40 41 42 43 44 45 46 47 48 49 50
000
ASUS43 KJKL 230105
RWRJKL

EAST KENTUCKY HOURLY WEATHER ROUNDUP
NATIONAL WEATHER SERVICE JACKSON KY
900 PM EDT WED OCT 22 2014

NOTE: "FAIR" INDICATES FEW OR NO CLOUDS BELOW 12,000 FEET WITH
NO SIGNIFICANT WEATHER AND/OR OBSTRUCTIONS TO VISIBILITY.

* THESE REPORTS ARE NOT UNDER NWS QUALITY CONTROL AND MAY NOT
  REPORT WEATHER SUCH AS PRECIPITATION AND FOG.

KYZ079-080-083-085-087-088-110-112-115-119-120-230200
...EASTERN KENTUCKY...

CITY           SKY/WX    TMP DP  RH WIND       PRES   REMARKS
JACKSON        CLOUDY    48  41  76 CALM      30.24S
LONDON         CLOUDY    49  41  74 CALM      30.24S
SOMERSET*      CLOUDY    46  41  81 CALM      30.27R
MONTICELLO*    CLOUDY    49  41  74 CALM      30.27S
MIDDLESBORO*   CLOUDY    49  40  72 NW3       30.24S
HARLAN APT*    CLOUDY    46  41  81 CALM      30.24R
PIKEVILLE APT* CLOUDY    46  43  87 N3        30.23S
BIG SANDY*     CLOUDY    48  43  81 CALM      30.24R
MOREHEAD APT*  CLOUDY    50  43  76 CALM      30.27S
$$

KYZ035-036-041-042-044-050-067-078-099-230200
...CENTRAL KENTUCKY...

CITY           SKY/WX    TMP DP  RH WIND       PRES   REMARKS
MT STERLING*   CLOUDY    48  43  81 CALM      30.27S
FLEMING/MASON* CLOUDY    49  42  75 N6        30.27S
DANVILLE*      CLOUDY    46  43  87 CALM      30.26S
RICHMOND*      CLOUDY    48  43  81 CALM      30.25S
LEXINGTON      CLOUDY    52  42  69 NE8       30.26R
FRANKFORT      PTCLDY    50  40  68 NE7       30.26R
$$

KYZ091>093-OHZ055-061-077-WVZ005-015-034-035-042-230200
...SOUTHERN OHIO/WEST VIRGINIA...

CITY           SKY/WX    TMP DP  RH WIND       PRES   REMARKS
COVINGTON      MOCLDY    49  39  68 NE5       30.27R
COLUMBUS       CLOUDY    49  41  74 N7        30.25S
DAYTON         CLOUDY    48  40  73 NE7       30.30R
WILMINGTON     CLOUDY    47  39  74 N7        30.27S
HUNTINGTON     CLOUDY    49  42  77 N7        30.24R
CHARLESTON     CLOUDY    49  44  83 NW7       30.22R
PINEVILLE*     CLOUDY    47  47 100 MISG      30.24S FOG
BECKLEY        CLOUDY    43  40  89 NW9       30.17S
BLUEFIELD      CLOUDY    44  39  82 NW6       30.17R
$$

VAZ002-007-008-TNZ017-027-036-066-071-230200
...SOUTHWEST VIRGINIA/EAST TENNESSEE...

CITY           SKY/WX    TMP DP  RH WIND       PRES   REMARKS
WISE*          CLOUDY    43  43 100 N7        30.22R
JONESVILLE*    CLOUDY    48  41  76 CALM      30.25S
ABINGDON*      CLOUDY    46  42  83 N5        30.20S
BRISTOL        CLOUDY    48  41  76 NW3       30.22S
KNOXVILLE      PTCLDY    48  39  71 N12       30.22R
OAK RIDGE      PTCLDY    49  39  68 CALM      30.24R
CROSSVILLE     CLEAR     46  38  73 NE8       30.22R
NASHVILLE      CLEAR     52  42  69 N7        30.21R
$$

...KEY TO REMARKS...
VSB - VISIBILITY IN MILES
WCI - WIND CHILL INDEX
HX  - HEAT INDEX

$$



USA.gov is the U.S. government's official web portal to all federal, state and local government web resources and services.